Clarksburg, WV

1:20 AM EST on November 20, 2019 (GMT -0500)
Benedum

Weather History for KCKB - September, 2019

Change the Weather History Date:

Thursday, September 19, 2019

  Actual Average Record
Temperature  
Mean Temperature 68 °F -  
Max Temperature 82 °F 74 °F 92 °F (1925)
Min Temperature 53 °F 53 °F 34 °F (1929)
Cooling Degree Days 2    
Growing Degree Days 18 (Base 50)    
Moisture  
Dew Point 47 °F    
Average Humidity 52    
Maximum Humidity 83    
Minimum Humidity 28    
Precipitation  
Precipitation 0.00 in - - ()
Sea Level Pressure  
Sea Level Pressure 30.18 in    
Wind  
Wind Speed 3 mph (ESE)    
Max Wind Speed 8 mph    
Max Gust Speed -    
Visibility 10 miles    
Events      
Averages and records for this station are not official NWS values.
T = Trace of Precipitation, MM = Missing Value Source: NWS Daily Summary

Daily Weather History Graph

Daily Weather History Graph

Search for Another Location

Airport or City:

Astronomy

Sep. 19, 2019 Rise Set
Actual Time 7:05 AM EDT 7:23 PM EDT
Civil Twilight 6:38 AM EDT 7:49 PM EDT
Nautical Twilight 6:07 AM EDT 8:21 PM EDT
Astronomical Twilight 5:35 AM EDT 8:53 PM EDT
Moon 10:33 PM EDT (9/19) 12:05 PM EDT (9/19)
Length of Visible Light 13h 11m
Length of Day
12h 17m
Waning Gibbous, 74% of the Moon is Illuminated
Sep 19
Waning Gibbous
Sep 21
Last Quarter
Sep 28
New
Oct 5
First Quarter
Oct 13
Full

Hourly Weather History & Observations

Time (EDT) Temp. Dew Point Humidity Pressure Visibility Wind Dir Wind Speed Gust Speed Precip Events Conditions
12:53 AM 59.0 °F 46.9 °F 64% 30.16 in 10.0 mi Calm Calm - N/A   Clear
1:53 AM 57.0 °F 46.9 °F 69% 30.17 in 10.0 mi East 3.5 mph - N/A   Clear
2:53 AM 55.9 °F 46.9 °F 72% 30.17 in 10.0 mi Calm Calm - N/A   Clear
3:53 AM 54.0 °F 46.9 °F 77% 30.17 in 10.0 mi Calm Calm - N/A   Clear
4:53 AM 53.1 °F 48.0 °F 83% 30.17 in 10.0 mi Calm Calm - N/A   Clear
5:53 AM 53.1 °F 46.9 °F 80% 30.18 in 10.0 mi Calm Calm - N/A   Clear
6:53 AM 55.9 °F 48.0 °F 75% 30.20 in 10.0 mi East 6.9 mph - N/A   Clear
7:53 AM 57.9 °F 48.9 °F 72% 30.22 in 10.0 mi East 4.6 mph - N/A   Clear
8:53 AM 63.0 °F 51.1 °F 65% 30.24 in 10.0 mi East 4.6 mph - N/A   Clear
9:53 AM 68.0 °F 50.0 °F 52% 30.24 in 10.0 mi SSE 8.1 mph - N/A   Clear
11:53 AM 73.9 °F 48.0 °F 40% 30.23 in 10.0 mi North - - N/A   Clear
12:53 PM 77.0 °F 46.0 °F 33% 30.22 in 10.0 mi ESE 8.1 mph - N/A   Clear
1:53 PM 78.1 °F 46.0 °F 32% 30.20 in 10.0 mi Variable 5.8 mph - N/A   Clear
2:53 PM 81.0 °F 46.9 °F 30% 30.18 in 10.0 mi NE 5.8 mph - N/A   Clear
3:53 PM 82.0 °F 46.0 °F 28% 30.17 in 10.0 mi Variable 3.5 mph - N/A   Clear
4:53 PM 81.0 °F 45.0 °F 28% 30.15 in 10.0 mi Variable 6.9 mph - N/A   Clear
5:53 PM 80.1 °F 45.0 °F 29% 30.15 in 10.0 mi Variable 5.8 mph - N/A   Clear
6:53 PM 77.0 °F 46.0 °F 33% 30.15 in 10.0 mi East 4.6 mph - N/A   Clear
7:53 PM 73.9 °F 45.0 °F 35% 30.16 in 10.0 mi ESE 4.6 mph - N/A   Clear
8:53 PM 71.1 °F 48.0 °F 44% 30.17 in 10.0 mi SE 6.9 mph - N/A   Clear
9:53 PM 69.1 °F 46.9 °F 45% 30.17 in 10.0 mi SE 3.5 mph - N/A   Clear
10:53 PM 61.0 °F 48.0 °F 62% 30.18 in 10.0 mi Calm Calm - N/A   Clear